カタログに戻る

PSN N5

運用中通信GEO
NORAD 65588·PAYLOAD·🇮🇩 Indonesia

打ち上げ Sep 12, 2025 から Cape Canaveral Space Force Station

Loading…

TLE

最新Source: Space-Track

元期: Sep 14, 2026, 14:20 UTC

1 65588U 25205A   26257.59746110 -.00000366  00000-0  00000-0 0  9997
2 65588   0.0143 357.3704 0000431 252.6516  71.4897  1.00273132  3611

AllMySatでPSN N5をリアルタイム追跡

Download on the App Store